TimeCDT,TemperatureF,Dew PointF,Humidity,Sea Level PressureIn,VisibilityMPH,Wind Direction,Wind SpeedMPH,Gust SpeedMPH,PrecipitationIn,Events,Conditions,WindDirDegrees,DateUTC
12:53 AM,51.1,43.0,74,29.78,10.0,WNW,8.1,-,N/A,,Clear,300,2013-04-07 05:53:00
1:53 AM,48.9,42.1,77,29.80,9.0,NW,5.8,-,N/A,,Clear,310,2013-04-07 06:53:00
2:53 AM,46.9,41.0,80,29.81,8.0,NW,4.6,-,N/A,,Clear,320,2013-04-07 07:53:00
3:53 AM,45.0,39.9,82,29.83,7.0,NW,6.9,-,N/A,,Clear,310,2013-04-07 08:53:00
4:53 AM,44.1,39.9,85,29.85,6.0,Calm,Calm,-,N/A,,Clear,0,2013-04-07 09:53:00
5:53 AM,39.0,37.0,93,29.87,5.0,Calm,Calm,-,N/A,,Clear,0,2013-04-07 10:53:00
6:53 AM,39.0,37.9,96,29.89,3.0,NW,3.5,-,N/A,,Clear,310,2013-04-07 11:53:00
7:53 AM,43.0,39.0,86,29.91,4.0,NW,3.5,-,N/A,,Clear,320,2013-04-07 12:53:00
8:53 AM,48.0,41.0,77,29.92,6.0,Calm,Calm,-,N/A,,Haze,0,2013-04-07 13:53:00
9:53 AM,50.0,41.0,71,29.93,7.0,NE,3.5,-,N/A,,Clear,50,2013-04-07 14:53:00
10:53 AM,53.1,41.0,64,29.94,8.0,Calm,Calm,-,N/A,,Clear,0,2013-04-07 15:53:00
11:53 AM,55.9,39.9,55,29.95,10.0,ESE,3.5,-,N/A,,Mostly Cloudy,110,2013-04-07 16:53:00
12:53 PM,60.1,39.0,46,29.93,10.0,Variable,3.5,-,N/A,,Clear,0,2013-04-07 17:53:00
1:53 PM,62.1,39.9,44,29.91,10.0,NE,5.8,-,N/A,,Clear,50,2013-04-07 18:53:00
2:53 PM,64.0,41.0,43,29.90,10.0,Variable,3.5,-,N/A,,Clear,0,2013-04-07 19:53:00
3:53 PM,66.9,42.1,40,29.87,10.0,North,6.9,-,N/A,,Clear,10,2013-04-07 20:53:00
4:53 PM,70.0,43.0,38,29.85,10.0,ENE,4.6,-,N/A,,Clear,60,2013-04-07 21:53:00
5:53 PM,71.1,42.1,35,29.83,10.0,ESE,8.1,-,N/A,,Clear,120,2013-04-07 22:53:00
6:53 PM,69.1,43.0,39,29.82,10.0,ESE,6.9,-,N/A,,Clear,110,2013-04-07 23:53:00
7:53 PM,64.9,43.0,45,29.80,7.0,East,6.9,-,N/A,,Clear,100,2013-04-08 00:53:00
8:53 PM,63.0,43.0,48,29.80,10.0,East,10.4,-,N/A,,Clear,100,2013-04-08 01:53:00
9:53 PM,61.0,42.1,50,29.78,10.0,ESE,11.5,-,N/A,,Clear,110,2013-04-08 02:53:00
10:53 PM,61.0,42.1,50,29.75,10.0,ESE,11.5,-,N/A,,Clear,110,2013-04-08 03:53:00
11:53 PM,61.0,42.1,50,29.74,10.0,ESE,10.4,-,N/A,,Mostly Cloudy,120,2013-04-08 04:53:00